Weather History for KDCU - January, 2014

Change the Weather History Date:

Saturday, January 4, 2014

  Actual Average Record
Temperature  
Mean Temperature 34 °F -  
Max Temperature 46 °F 50 °F 73 °F (2004)
Min Temperature 21 °F 31 °F 12 °F (1969)
Degree Days  
Heating Degree Days 32    
Moisture  
Dew Point 20 °F    
Average Humidity 59    
Maximum Humidity 92    
Minimum Humidity 36    
Precipitation  
Precipitation 0.00 in - - ()
Sea Level Pressure  
Sea Level Pressure 30.25 in    
Wind  
Wind Speed 10 mph (SE)    
Max Wind Speed 17 mph    
Max Gust Speed -    
Visibility 10 miles    
Events      
Averages and records for this station are not official NWS values.
T = Trace of Precipitation, MM = Missing Value Source: NWS Daily Summary

Daily Weather History Graph

Daily Weather History Graph

Search for Another Location

Airport or City:

Trip Planner

Search our weather history database for the weather conditions in past years. The results will help you decide how hot, cold, wet, or windy it might be!

Date:

Astronomy

Jan. 04, 2014 Rise Set
Actual Time 6:55 AM CST 4:50 PM CST
Civil Twilight 6:27 AM CST 5:18 PM CST
Nautical Twilight 5:56 AM CST 5:49 PM CST
Astronomical Twilight 5:25 AM CST 6:20 PM CST
Moon 9:10 AM CST (1/4) 8:58 PM CST (1/4)
Length of Visible Light 10h 50m
Length of Day
9h 55m
Waxing Crescent, 15% of the Moon is Illuminated
Jan 4
Waxing Crescent
Jan 7
First Quarter
Jan 15
Full
Jan 23
Last Quarter
Jan 30
New

Hourly Weather History & Observations

Time (CST) Temp. Windchill Dew Point Humidity Pressure Visibility Wind Dir Wind Speed Gust Speed Precip Events Conditions
12:53 AM 24.1 °F 13.7 °F 12.0 °F 60% 30.32 in 10.0 mi SSE 10.4 mph - N/A   Clear
1:53 AM 25.0 °F 15.5 °F 10.9 °F 55% 30.34 in 10.0 mi SE 9.2 mph - N/A   Clear
2:53 AM 25.0 °F 17.1 °F 12.9 °F 60% 30.35 in 10.0 mi SE 6.9 mph - N/A   Clear
3:53 AM 25.0 °F 18.1 °F 12.9 °F 60% 30.35 in 10.0 mi SE 5.8 mph - N/A   Clear
4:53 AM 24.1 °F 16.0 °F 12.9 °F 62% 30.34 in 10.0 mi SE 6.9 mph - N/A   Clear
5:53 AM 21.9 °F 12.5 °F 14.0 °F 72% 30.34 in 10.0 mi SE 8.1 mph - N/A   Clear
6:53 AM 25.0 °F 17.1 °F 14.0 °F 63% 30.35 in 10.0 mi SE 6.9 mph - N/A   Clear
7:53 AM 27.0 °F 19.5 °F 15.1 °F 61% 30.36 in 10.0 mi SE 6.9 mph - N/A   Clear
8:53 AM 30.9 °F 22.2 °F 16.0 °F 54% 30.37 in 10.0 mi SE 10.4 mph - N/A   Clear
9:53 AM 35.1 °F 26.4 °F 17.1 °F 48% 30.35 in 10.0 mi SE 12.7 mph - N/A   Clear
10:53 AM 39.9 °F 31.1 °F 17.1 °F 40% 30.31 in 10.0 mi South 17.3 mph - N/A   Clear
11:53 AM 42.1 °F 34.2 °F 18.0 °F 38% 30.28 in 10.0 mi SSE 16.1 mph - N/A   Clear
12:53 PM 45.0 °F 38.5 °F 19.9 °F 37% 30.24 in 10.0 mi SSE 13.8 mph - N/A   Clear
1:53 PM 46.0 °F 39.6 °F 21.9 °F 39% 30.20 in 10.0 mi South 15.0 mph - N/A   Clear
2:53 PM 46.9 °F - 21.0 °F 36% 30.18 in 10.0 mi SSE 13.8 mph - N/A   Clear
3:53 PM 46.0 °F 39.9 °F 24.1 °F 42% 30.17 in 10.0 mi SSE 13.8 mph - N/A   Clear
4:53 PM 41.0 °F 34.3 °F 25.0 °F 53% 30.16 in 10.0 mi SSE 11.5 mph - N/A   Clear
5:53 PM 36.0 °F 29.0 °F 26.1 °F 67% 30.15 in 10.0 mi SE 9.2 mph - N/A   Clear
6:53 PM 37.9 °F 32.1 °F 25.0 °F 60% 30.14 in 10.0 mi SE 8.1 mph - N/A   Clear
7:53 PM 39.0 °F 30.6 °F 26.1 °F 60% 30.13 in 10.0 mi SE 15.0 mph - N/A   Clear
8:53 PM 37.0 °F 28.5 °F 30.0 °F 76% 30.14 in 10.0 mi SE 13.8 mph - N/A   Clear
9:53 PM 36.0 °F 28.5 °F 30.9 °F 82% 30.14 in 10.0 mi SE 10.4 mph - N/A   Clear
10:53 PM 34.0 °F 26.0 °F 32.0 °F 92% 30.13 in 10.0 mi SE 10.4 mph - N/A   Partly Cloudy
11:53 PM 35.1 °F 28.6 °F 32.0 °F 89% 30.12 in 10.0 mi SE 8.1 mph - N/A   Clear